[[{"header":{"parameterUnit":"m.s-1","parameterCategory":1,"la1":30.2991,"la2":30.254,"lo1":-89.0895,"lo2":-89.0444,"dy":0.0017,"dx":0.0017,"nx":28,"ny":28,"refTime":"2025-08-07T21:00:00:Z","depth":0,"parameterNumber":2,"parameterNumberName":"U-component_of_WINDS"},"data":[0,0,0,0,0,0,0,0,0,0,0,0,0,0,0,0,0,0,0,0,0,0,0,0,0,0,0,0,0,0,0,0,0,0,0,0,0,0,0,0,0,0,0,0,0,0,0,0,0,0,0,0,0,0,0,0,0,0,-2.256,-2.256,0,-2.2564,-2.2564,-2.2564,-2.2537,-2.2536,-2.2535,-2.2534,-2.2538,-2.2539,-2.254,0,0,0,0,0,0,0,0,0,0,0,0,0,-2.2532,-2.2533,-2.256,-2.256,-2.256,-2.2564,-2.2564,-2.2564,-2.2537,-2.2536,-2.2535,-2.2534,-2.2538,-2.2539,-2.254,0,0,0,0,0,0,0,0,0,0,0,0,0,-2.2541,-2.2533,-2.256,-2.2547,-2.2546,-2.2564,-2.2564,-2.2564,-2.2537,-2.2536,-2.2535,-2.2534,-2.2538,-2.2539,-2.254,-2.257,0,0,-2.2544,-2.2544,0,0,0,0,0,0,0,0,-2.254,-2.2542,-2.2549,-2.2548,-2.2547,-2.2549,-2.2555,-2.2566,-2.2537,-2.2541,-2.2534,-2.2533,-2.2543,-2.2543,-2.2547,-2.257,-2.257,-2.2544,-2.2545,-2.2545,-2.2546,0,0,0,0,0,0,0,-2.254,-2.2541,-2.2562,-2.2549,-2.2548,-2.2542,-2.2542,-2.2557,-2.2548,-2.254,-2.2538,-2.2539,-2.2542,-2.2545,-2.2546,-2.2571,-2.2544,-2.2545,-2.2546,-2.2546,-2.262,-2.2621,0,0,0,0,0,0,-2.2541,-2.2541,-2.2561,-2.2562,-2.2541,-2.2543,-2.2543,-2.2549,-2.2548,-2.2546,-2.254,-2.2538,-2.2544,-2.2545,-2.2546,-2.2582,-2.2545,-2.2546,-2.2547,-2.2619,-2.262,-2.2621,0,0,0,0,0,0,-2.254,-2.2543,-2.2561,-2.2551,-2.2553,-2.2545,-2.2552,-2.255,-2.2553,-2.2547,-2.2546,-2.2545,-2.2543,-2.2545,-2.2565,-2.2582,-2.2547,-2.2548,-2.2617,-2.2619,-2.2621,-2.2653,0,0,0,0,0,0,-2.2539,-2.2543,-2.2554,-2.2551,-2.2553,-2.2579,-2.2553,-2.2551,-2.2555,-2.2553,-2.2552,-2.2551,-2.2542,-2.2563,-2.2566,-2.2583,-2.2549,-2.2616,-2.2618,-2.262,-2.265,-2.2656,-2.266,0,0,0,0,0,-2.2538,-2.2563,-2.2554,-2.2557,-2.2567,-2.258,-2.2581,-2.2571,-2.2557,-2.2568,-2.2565,-2.2551,-2.2579,-2.2565,-2.2568,-2.2586,-2.2615,-2.2617,-2.262,-2.2648,-2.2654,-2.266,0,0,0,0,0,0,-2.2567,-2.2562,-2.2553,-2.2577,-2.2579,-2.2576,-2.2589,-2.2578,-2.2585,-2.2582,-2.2569,-2.2569,-2.2591,-2.259,-2.2575,-2.2615,-2.2594,-2.2598,-2.2615,-2.2621,-2.2626,-2.2625,-2.255,0,0,0,0,0,-2.2576,-2.2587,-2.2582,-2.2604,-2.2605,-2.2597,-2.2603,-2.2595,-2.2597,-2.2598,-2.2595,-2.2598,-2.2608,-2.2614,-2.2623,-2.265,-2.265,-2.2664,-2.2669,-2.2673,-2.2676,-2.2691,-2.2697,-2.2631,-2.2631,-2.2631,0,0,-2.2595,-2.2594,-2.2601,-2.261,-2.261,-2.2622,-2.2598,-2.2612,-2.2621,-2.26,-2.2618,-2.2617,-2.2619,-2.2643,-2.2653,-2.2643,-2.2694,-2.2676,-2.2679,-2.268,-2.2694,-2.2701,-2.2706,-2.2632,-2.2632,-2.2632,0,0,-2.2636,-2.2636,-2.2654,-2.2655,-2.2657,-2.2652,-2.2656,-2.2654,-2.2653,-2.2671,-2.2656,-2.2666,-2.2683,-2.2685,-2.2689,-2.2731,-2.2719,-2.2734,-2.276,-2.2775,-2.278,-2.2785,-2.28,-2.2806,-2.2738,-2.2738,-2.2738,0,-2.2659,-2.2676,-2.2665,-2.268,-2.2684,-2.2665,-2.2684,-2.2686,-2.2691,-2.2694,-2.2682,-2.2703,-2.2703,-2.2728,-2.2738,-2.2742,-2.2747,-2.2734,-2.278,-2.2785,-2.2789,-2.2804,-2.281,-2.2739,-2.2739,-2.2739,-2.2739,0,-2.2705,-2.2718,-2.2732,-2.2737,-2.2743,-2.276,-2.2751,-2.2758,-2.275,-2.2746,-2.2766,-2.2765,-2.2773,-2.2779,-2.2771,-2.2802,-2.2796,-2.2783,-2.2762,-2.2797,-2.2811,-2.2817,-2.2742,-2.2741,-2.2741,-2.274,0,0,-2.2764,-2.2762,-2.2768,-2.277,-2.2771,-2.278,-2.2797,-2.2805,-2.2811,-2.2815,-2.2829,-2.2844,-2.2832,-2.2836,-2.2828,-2.2841,-2.2875,-2.2826,-2.2826,-2.2835,-2.2911,-2.2921,-2.2927,-2.2867,-2.2868,-2.2869,-2.2911,0,-2.2804,-2.2831,-2.2821,-2.2849,-2.2861,-2.2844,-2.2858,-2.286,-2.2857,-2.2866,-2.2863,-2.2874,-2.2857,-2.2859,-2.2871,-2.2868,-2.289,-2.2865,-2.288,-2.288,-2.288,-2.2934,-2.2945,-2.2985,-2.2916,-2.2917,-2.2917,0,-2.2854,-2.286,-2.2889,-2.2888,-2.2893,-2.2906,-2.2913,-2.2922,-2.2924,-2.2921,-2.2926,-2.2915,-2.2932,-2.2911,-2.2933,-2.2917,-2.2922,-2.2922,-2.2923,-2.2924,-2.2901,-2.2937,-2.2997,-2.3003,-2.2925,-2.2925,-2.2924,0,-2.2894,-2.291,-2.2929,-2.2931,-2.2931,-2.2941,-2.2941,-2.2942,-2.2948,-2.2954,-2.2958,-2.2966,-2.2971,-2.2977,-2.297,-2.2955,-2.2994,-2.2972,-2.2992,-2.2992,-2.3001,-2.3,-2.3062,-2.3004,-2.3004,-2.3004,-2.3004,0,-2.294,-2.2959,-2.2947,-2.2959,-2.298,-2.2969,-2.2989,-2.2988,-2.2989,-2.3001,-2.2987,-2.2998,-2.2987,-2.2998,-2.2992,-2.3012,-2.3014,-2.3012,-2.301,-2.3014,-2.3014,-2.3017,-2.3014,-2.3005,-2.3005,-2.3005,-2.3004,0,-2.2989,-2.2982,-2.3002,-2.3,-2.3,-2.3015,-2.3013,-2.3025,-2.3021,-2.3036,-2.3039,-2.3033,-2.3045,-2.3037,-2.3049,-2.3046,-2.3072,-2.3066,-2.3071,-2.3069,-2.309,-2.3088,-2.3156,-2.3165,-2.3101,-2.3101,-2.3102,0,-2.3018,-2.3032,-2.3032,-2.3038,-2.304,-2.3051,-2.3057,-2.3046,-2.3053,-2.3057,-2.3068,-2.3079,-2.3087,-2.3107,-2.3104,-2.3113,-2.3108,-2.3131,-2.3109,-2.3112,-2.3108,-2.3108,-2.3109,-2.3135,-2.3136,-2.3137,-2.3137,0,-2.3072,-2.3068,-2.3077,-2.3084,-2.3092,-2.3097,-2.3102,-2.3108,-2.3098,-2.3107,-2.3119,-2.3125,-2.3137,-2.3148,-2.3156,-2.3157,-2.3146,-2.3144,-2.3149,-2.3153,-2.3155,-2.3154,-2.3083,-2.3142,-2.3142,-2.3141,-2.3141,-2.3141,-2.3112,-2.3124,-2.3125,-2.3136,-2.3138,-2.3143,-2.3153,-2.3151,-2.316,-2.317,-2.3163,-2.3178,-2.318,-2.319,-2.3192,-2.3204,-2.3194,-2.3202,-2.3203,-2.3206,-2.3208,-2.3153,-2.3205,-2.3205,-2.3205,-2.3205,-2.3204,0,-2.3165,-2.3165,-2.3175,-2.3182,-2.319,-2.3179,-2.3183,-2.3191,-2.3204,-2.3207,-2.3215,-2.3229,-2.324,-2.3238,-2.3248,-2.3257,-2.3252,-2.326,-2.326,-2.326,-2.3216,-2.3211,-2.3264,-2.3264,-2.3264,-2.3264,-2.3264,-2.3264,-2.3194,-2.3213,-2.321,-2.323,-2.323,-2.3244,-2.3248,-2.3252,-2.3255,-2.3271,-2.328,-2.3278,-2.328,-2.329,-2.3299,-2.3298,-2.3303,-2.3313,-2.331,-2.3269,-2.3263,-2.3257,-2.3252,-2.3314,-2.3314,-2.3353,-2.3353,-2.3354]},{"header":{"parameterUnit":"m.s-1","parameterCategory":1,"la1":30.2991,"la2":30.254,"lo1":-89.0895,"lo2":-89.0444,"dy":0.0017,"dx":0.0017,"nx":28,"ny":28,"refTime":"2025-08-07T21:00:00:Z","depth":0,"parameterNumber":3,"parameterNumberName":"V-component_of_WINDS"},"data":[0,0,0,0,0,0,0,0,0,0,0,0,0,0,0,0,0,0,0,0,0,0,0,0,0,0,0,0,0,0,0,0,0,0,0,0,0,0,0,0,0,0,0,0,0,0,0,0,0,0,0,0,0,0,0,0,0,0,2.425,2.4249,0,2.4167,2.4166,2.4165,2.4136,2.4136,2.4137,2.4137,2.4041,2.4038,2.4035,0,0,0,0,0,0,0,0,0,0,0,0,0,2.4375,2.4373,2.425,2.4249,2.4248,2.4167,2.4166,2.4165,2.4136,2.4136,2.4137,2.4137,2.4042,2.4039,2.4035,0,0,0,0,0,0,0,0,0,0,0,0,0,2.4309,2.4373,2.4251,2.4225,2.4221,2.4167,2.4166,2.4164,2.4136,2.4136,2.4137,2.4138,2.4043,2.4039,2.4035,2.3997,0,0,2.4021,2.4019,0,0,0,0,0,0,0,0,2.4313,2.4305,2.4229,2.4226,2.4223,2.4163,2.4175,2.4108,2.4136,2.4168,2.4137,2.4138,2.408,2.4073,2.4056,2.3993,2.3988,2.4021,2.4018,2.4016,2.4015,0,0,0,0,0,0,0,2.4318,2.4308,2.4217,2.4228,2.4224,2.4214,2.4205,2.4162,2.4122,2.4165,2.4163,2.4154,2.4078,2.406,2.4053,2.3987,2.4021,2.4017,2.4015,2.4013,2.3888,2.3887,0,0,0,0,0,0,2.4328,2.4312,2.422,2.4215,2.427,2.4211,2.4201,2.4181,2.4122,2.4114,2.4154,2.4153,2.4067,2.4058,2.405,2.4001,2.4016,2.4012,2.401,2.3888,2.3887,2.3887,0,0,0,0,0,0,2.4331,2.432,2.4223,2.4263,2.425,2.4209,2.4186,2.4179,2.4161,2.4114,2.4105,2.4143,2.4067,2.4056,2.4011,2.3997,2.401,2.4006,2.3889,2.3888,2.3887,2.3904,0,0,0,0,0,0,2.4334,2.4321,2.4309,2.4263,2.4248,2.4189,2.4185,2.4177,2.4155,2.4153,2.4101,2.4093,2.4067,2.4018,2.4007,2.3992,2.4003,2.389,2.3889,2.3887,2.3905,2.3904,2.3904,0,0,0,0,0,2.4339,2.4315,2.4308,2.4297,2.4232,2.4188,2.4179,2.4152,2.4154,2.4139,2.4109,2.4095,2.4001,2.4013,2.4001,2.3984,2.3891,2.3889,2.3887,2.3905,2.3904,2.3904,0,0,0,0,0,0,2.4356,2.4308,2.43,2.4261,2.423,2.4183,2.4164,2.4152,2.4116,2.4116,2.4081,2.4069,2.4027,2.4001,2.4015,2.3944,2.3945,2.3941,2.3963,2.3961,2.3961,2.3967,2.4,0,0,0,0,0,2.4357,2.4328,2.4286,2.4256,2.4241,2.4206,2.4185,2.4168,2.4132,2.4117,2.4083,2.4046,2.4008,2.3983,2.3946,2.3902,2.3888,2.3884,2.3883,2.3883,2.3879,2.3852,2.3849,2.3881,2.3881,2.3881,0,0,2.4354,2.4325,2.4308,2.4258,2.4232,2.42,2.4194,2.4161,2.4136,2.4111,2.4067,2.4041,2.3997,2.3952,2.393,2.3929,2.3868,2.3881,2.3881,2.3877,2.385,2.3847,2.3844,2.388,2.388,2.388,0,0,2.4335,2.4311,2.4283,2.4257,2.4218,2.4195,2.4188,2.4144,2.4127,2.4084,2.4064,2.4032,2.3968,2.3937,2.3913,2.3884,2.3868,2.3872,2.3868,2.3842,2.3839,2.3837,2.3824,2.382,2.3869,2.3869,2.3869,0,2.4337,2.4292,2.4269,2.4237,2.4215,2.4195,2.4164,2.4139,2.4088,2.4071,2.4072,2.3991,2.396,2.3907,2.39,2.3882,2.3871,2.3877,2.3842,2.3839,2.3837,2.3824,2.382,2.3869,2.3869,2.3869,2.3869,0,2.4295,2.4264,2.4245,2.4201,2.4176,2.4145,2.4114,2.4092,2.4077,2.4053,2.4008,2.397,2.3925,2.3911,2.3894,2.3855,2.3856,2.385,2.3849,2.3835,2.3822,2.3818,2.387,2.387,2.387,2.387,0,0,2.4282,2.4227,2.422,2.42,2.4156,2.413,2.4097,2.4056,2.4037,2.4002,2.3972,2.3919,2.3914,2.3886,2.3866,2.3844,2.3821,2.384,2.3838,2.3836,2.3773,2.3776,2.3771,2.3811,2.381,2.381,2.3776,0,2.4255,2.42,2.4178,2.4131,2.4101,2.4082,2.4053,2.4021,2.3998,2.3967,2.3939,2.3902,2.3899,2.3882,2.386,2.3829,2.3807,2.3831,2.3779,2.3777,2.3789,2.3765,2.3769,2.3739,2.3771,2.377,2.377,0,2.4217,2.4186,2.4137,2.4098,2.4084,2.4059,2.4019,2.3991,2.3953,2.3938,2.3909,2.389,2.3852,2.3856,2.38,2.3817,2.3795,2.3776,2.3774,2.3766,2.3771,2.3755,2.3729,2.3724,2.3762,2.3763,2.3763,0,2.421,2.4156,2.412,2.4103,2.4056,2.4039,2.4018,2.3982,2.3958,2.3923,2.3907,2.3866,2.3843,2.381,2.378,2.3786,2.3727,2.3729,2.371,2.3711,2.3696,2.3697,2.3664,2.3686,2.3686,2.3686,2.3686,0,2.4182,2.4152,2.4117,2.4094,2.406,2.4035,2.4,2.3977,2.3945,2.3915,2.3895,2.3867,2.383,2.3796,2.3772,2.3729,2.3719,2.3703,2.3696,2.3703,2.3705,2.3686,2.3687,2.3685,2.3685,2.3685,2.3685,0,2.4167,2.4143,2.4102,2.4063,2.4052,2.4028,2.3992,2.3968,2.3945,2.3907,2.3897,2.3859,2.3818,2.3786,2.3731,2.3715,2.3669,2.3663,2.3683,2.3679,2.3661,2.3663,2.3613,2.3604,2.3634,2.3634,2.3634,0,2.415,2.4127,2.4086,2.4067,2.4047,2.4016,2.3993,2.3967,2.3943,2.39,2.388,2.3839,2.3804,2.3739,2.3704,2.3662,2.3653,2.3639,2.3646,2.3654,2.365,2.3651,2.3647,2.3637,2.3637,2.3636,2.3636,0,2.412,2.411,2.408,2.4046,2.4021,2.3991,2.3961,2.3946,2.3913,2.3887,2.3848,2.3821,2.3768,2.3725,2.368,2.3654,2.3638,2.3635,2.3628,2.3634,2.3646,2.3637,2.3678,2.3635,2.3636,2.3636,2.3636,2.3636,2.4102,2.4081,2.405,2.4016,2.3992,2.3965,2.3941,2.3916,2.3884,2.3841,2.3826,2.3785,2.3746,2.3685,2.3659,2.3623,2.3622,2.3612,2.3609,2.3607,2.3607,2.3654,2.3615,2.3615,2.3615,2.3615,2.3615,0,2.407,2.405,2.402,2.3981,2.3954,2.3948,2.3914,2.3891,2.3856,2.3824,2.3791,2.3744,2.3704,2.3667,2.3624,2.3603,2.3594,2.3592,2.3592,2.3585,2.3611,2.3621,2.3599,2.3599,2.3599,2.3599,2.3599,2.3599,2.405,2.4014,2.4,2.3951,2.3929,2.3891,2.3873,2.3846,2.3821,2.3771,2.3739,2.3717,2.3682,2.3636,2.3598,2.3588,2.3571,2.357,2.3558,2.3582,2.3584,2.3586,2.3594,2.3568,2.3568,2.3535,2.3535,2.3535]}]]